Weather reports worldwide

Advertisment
Karesuando A, Sweden (2081): temperature & dewpoint: 01.07.2020 22:00:00 - 07.07.2020 22:00:00 (CEST)Karesuando A, Sweden (2081): wind speed & gusts: 01.07.2020 22:00:00 - 07.07.2020 22:00:00 (CEST)Karesuando A, Sweden (2081): wind direction: 01.07.2020 22:00:00 - 07.07.2020 22:00:00 (CEST)Karesuando A, Sweden (2081): reduced air pressure: 01.07.2020 22:00:00 - 07.07.2020 22:00:00 (CEST)Karesuando A, Sweden (2081): visibility: 01.07.2020 22:00:00 - 07.07.2020 22:00:00 (CEST)Karesuando A, Sweden (2081): precipitation: 01.07.2020 22:00:00 - 07.07.2020 22:00:00 (CEST)
Date & Time tt [°C] td [°C] ff [km/h] ff [kn] fx [km/h] fx [kn] dd ppp [hPa] vv [km] rr [mm]
07.07.2020 22:00:00 - - - - - - - - - -
07.07.2020 21:00:00 13,5 5,7 7 4 16 9 N 999,8 46 0,0
07.07.2020 20:00:00 13,7 5,2 8 4 19 10 NNW 999,6 50 0,0
07.07.2020 19:00:00 14,7 5,0 6 3 18 10 WNW 999,0 50 0,0
07.07.2020 18:00:00 13,6 6,2 5 3 12 7 NNW 999,1 50 0,0
07.07.2020 17:00:00 13,5 6,3 6 3 11 6 WNW 999,1 46 0,0
07.07.2020 16:00:00 12,9 6,1 6 3 15 8 NNE 998,8 50 0,0
07.07.2020 15:00:00 12,1 5,7 12 6 18 10 NW 998,3 50 0,0
07.07.2020 14:00:00 11,2 7,6 9 5 22 12 NW 998,3 50 0,0
07.07.2020 13:00:00 11,0 7,4 14 8 21 12 NW 997,6 50 0,0
07.07.2020 12:00:00 11,1 7,5 11 6 19 10 WNW 996,9 50 0,0
07.07.2020 11:00:00 11,1 8,0 8 4 15 8 WNW 996,1 49 0,0
07.07.2020 10:00:00 11,1 8,4 5 3 11 6 SW 995,6 49 0,0
07.07.2020 09:00:00 10,2 8,1 5 3 10 5 W 995,1 45 0,0
07.07.2020 08:00:00 9,6 8,1 7 4 10 6 W 994,7 50 0,0
07.07.2020 07:00:00 8,8 8,1 6 3 9 5 W 994,4 49 0,2
07.07.2020 06:00:00 8,4 7,8 5 3 7 4 WSW 994,1 17 1,6
07.07.2020 05:00:00 8,2 7,5 5 3 8 5 WSW 993,5 14 0,4
07.07.2020 04:00:00 8,3 7,7 3 2 6 4 W 993,1 13 0,6
07.07.2020 03:00:00 8,1 7,4 3 2 12 7 NW 992,7 10 0,5
07.07.2020 02:00:00 8,4 7,0 8 4 11 6 WNW 992,2 22 0,3
07.07.2020 01:00:00 8,9 6,7 2 1 5 3 SSE 991,8 50 0,0
07.07.2020 00:00:00 9,0 6,0 2 1 6 4 SSE 991,4 34 0,0
06.07.2020 23:00:00 9,7 6,5 2 1 5 3 SSE 990,8 31 0,0
06.07.2020 22:00:00 10,6 5,6 2 1 13 7 N 990,3 42 0,0
06.07.2020 21:00:00 11,5 5,2 9 5 28 15 N 989,6 19 0,0
06.07.2020 20:00:00 15,1 4,5 14 8 26 14 NNW 988,4 14 0,0
06.07.2020 19:00:00 15,5 5,5 14 8 26 14 N 987,9 13 0,0
06.07.2020 18:00:00 15,6 3,5 16 9 28 15 NNW 987,3 17 0,0
06.07.2020 17:00:00 16,6 3,3 15 8 23 13 NW 987,0 15 0,0
06.07.2020 16:00:00 17,8 3,3 10 6 22 12 NNW 986,8 16 0,0
06.07.2020 15:00:00 15,9 4,4 8 5 16 9 NW 987,0 15 0,0
06.07.2020 14:00:00 16,2 4,0 6 3 20 11 W 987,2 11 0,0
06.07.2020 13:00:00 15,4 4,2 7 4 15 8 W 987,7 14 0,0
06.07.2020 12:00:00 14,7 3,5 4 2 19 11 NW 987,9 16 0,0
06.07.2020 11:00:00 14,4 3,7 7 4 15 8 NW 988,3 18 0,0
06.07.2020 10:00:00 13,6 5,7 8 4 18 10 NW 988,7 14 0,0
06.07.2020 09:00:00 11,6 4,0 7 4 18 10 NW 989,5 13 0,0
06.07.2020 08:00:00 10,8 4,5 10 5 16 8 WNW 990,1 20 0,0
06.07.2020 07:00:00 9,5 3,9 8 4 13 7 WNW 991,0 32 0,0
06.07.2020 06:00:00 7,2 3,6 6 4 11 6 NW 991,9 39 0,0
06.07.2020 05:00:00 6,2 4,5 3 2 6 4 W 992,7 43 0,0
06.07.2020 04:00:00 6,8 4,0 3 2 8 4 W 993,3 34 0,0
06.07.2020 03:00:00 6,4 3,6 5 3 10 5 NNW 993,8 44 0,0
06.07.2020 02:00:00 6,6 3,5 6 3 9 5 NW 994,1 41 0,0
06.07.2020 01:00:00 6,4 4,1 4 2 7 4 NNW 994,6 46 0,0
06.07.2020 00:00:00 6,8 4,2 2 1 6 3 W 995,1 42 0,0
05.07.2020 23:00:00 7,4 4,0 0 0 7 4 N 995,1 37 0,0
05.07.2020 22:00:00 7,8 3,7 5 3 15 8 NNW 995,3 47 0,0
05.07.2020 21:00:00 8,2 3,4 8 4 20 11 NNW 995,2 41 0,0
05.07.2020 20:00:00 8,6 3,3 12 6 22 12 NNW 995,6 43 0,0
05.07.2020 19:00:00 8,8 3,4 12 6 33 18 N 995,9 45 0,0
05.07.2020 18:00:00 8,8 3,5 15 8 34 19 NNW 996,0 36 0,0
05.07.2020 17:00:00 8,7 3,7 19 10 32 17 NNW 996,1 43 0,0
05.07.2020 16:00:00 8,4 3,4 22 12 37 20 NNW 996,0 50 0,0
05.07.2020 15:00:00 8,1 3,1 22 12 39 21 N 996,1 36 0,0
05.07.2020 14:00:00 8,0 4,1 20 11 38 21 NNW 996,0 34 0,0
05.07.2020 13:00:00 7,4 4,2 21 11 36 19 NNW 996,1 34 0,0
05.07.2020 12:00:00 7,3 3,7 18 10 36 20 N 996,1 48 0,0
05.07.2020 11:00:00 7,5 3,6 20 11 36 20 NNW 996,2 45 0,0
05.07.2020 10:00:00 8,2 3,6 18 10 39 21 N 996,2 49 0,0
05.07.2020 09:00:00 8,6 2,7 21 12 40 21 N 996,3 39 0,0
05.07.2020 08:00:00 7,2 2,7 20 11 36 19 N 996,8 49 0,0
05.07.2020 07:00:00 6,9 2,2 15 8 31 17 N 997,3 50 0,0
05.07.2020 06:00:00 6,5 2,2 19 10 32 18 NNW 997,9 37 0,0
05.07.2020 05:00:00 6,5 2,5 12 6 27 15 NNW 998,4 35 0,0
05.07.2020 04:00:00 6,0 2,8 11 6 19 10 NNW 999,0 38 0,0
05.07.2020 03:00:00 5,5 3,0 7 4 13 7 NNW 999,6 32 0,0
05.07.2020 02:00:00 5,3 3,0 4 2 12 7 NW 1000,0 35 0,0
05.07.2020 01:00:00 5,7 3,2 8 4 14 8 N 1000,2 46 0,0
05.07.2020 00:00:00 6,1 3,5 6 3 12 6 NNE 1000,2 32 0,0
04.07.2020 23:00:00 7,7 4,0 6 3 16 8 NE 1000,1 32 0,0
04.07.2020 22:00:00 8,8 4,2 10 5 16 9 NE 1000,3 33 0,0
04.07.2020 21:00:00 8,8 4,3 9 5 18 10 NE 1000,5 40 0,0
04.07.2020 20:00:00 10,0 5,1 8 4 20 11 NE 1000,3 28 0,0
04.07.2020 19:00:00 9,9 6,3 9 5 21 11 N 1000,4 37 0,0
04.07.2020 18:00:00 10,8 3,8 12 7 20 11 NW 1000,3 34 0,0
04.07.2020 17:00:00 10,6 4,5 11 6 18 10 W 1000,2 36 0,0
04.07.2020 16:00:00 10,5 4,3 13 7 20 11 WNW 1000,1 38 0,0
04.07.2020 15:00:00 11,0 7,0 11 6 22 12 WNW 999,9 33 0,0
04.07.2020 14:00:00 9,1 6,4 12 6 22 12 W 999,7 19 0,0
04.07.2020 13:00:00 9,4 6,3 13 7 28 15 NW 999,3 34 0,0
04.07.2020 12:00:00 10,2 8,2 14 8 24 13 NW 998,8 17 0,7
04.07.2020 11:00:00 8,5 7,7 13 7 28 15 NNW 999,0 9 3,5
04.07.2020 10:00:00 8,1 7,4 13 7 22 12 NNW 998,7 3,9 1,5
04.07.2020 09:00:00 8,6 7,8 11 6 21 11 NNW 998,3 18 2,2
04.07.2020 08:00:00 9,4 7,2 4 2 15 8 ENE 998,0 31 0,0
04.07.2020 07:00:00 9,8 7,1 6 4 20 11 E 997,9 32 0,0
04.07.2020 06:00:00 9,1 7,4 11 6 19 10 E 998,1 32 0,0
04.07.2020 05:00:00 8,3 7,8 5 3 26 14 N 998,1 32 0,2
04.07.2020 04:00:00 7,2 6,7 11 6 25 14 N 998,5 4,1 1,7
04.07.2020 03:00:00 6,9 6,3 13 7 26 14 N 999,0 8 1,1
04.07.2020 02:00:00 7,1 6,5 14 8 24 13 N 999,3 10 2,6
04.07.2020 01:00:00 7,2 6,6 10 5 20 11 N 1000,1 7 3,1
04.07.2020 00:00:00 7,1 6,5 10 5 20 11 N 1000,9 8 2,0
03.07.2020 23:00:00 7,3 6,7 9 5 16 9 N 1001,5 10 1,6
03.07.2020 22:00:00 7,6 6,7 5 3 11 6 NE 1002,0 10 1,5
03.07.2020 21:00:00 8,2 6,7 5 3 18 10 ENE 1002,4 14 0,3
03.07.2020 20:00:00 9,6 5,2 11 6 25 13 ESE 1002,1 47 0,0
03.07.2020 19:00:00 12,0 3,3 10 5 24 13 SSE 1001,6 28 0,0
03.07.2020 18:00:00 13,0 1,3 6 4 22 12 E 1001,7 14 0,0
03.07.2020 17:00:00 13,9 0,3 10 6 21 11 E 1001,7 17 0,0
03.07.2020 16:00:00 14,7 -0,9 5 3 15 8 E 1001,8 18 0,0
03.07.2020 15:00:00 14,2 -0,9 8 4 17 9 E 1001,8 18 0,0
03.07.2020 14:00:00 14,0 -2,2 8 4 18 10 E 1002,1 13 0,0
03.07.2020 13:00:00 14,5 -2,7 8 4 17 9 E 1002,3 13 0,0
03.07.2020 12:00:00 13,9 -3,2 6 3 13 7 E 1002,6 16 0,0
03.07.2020 11:00:00 12,7 -4,8 5 3 13 7 SSE 1003,0 17 0,0
03.07.2020 10:00:00 12,4 -3,2 4 2 16 9 NW 1003,2 16 0,0
03.07.2020 09:00:00 - - - - - - - - - -
03.07.2020 08:00:00 10,6 -0,9 9 5 17 9 WSW 1003,6 19 0,0
03.07.2020 07:00:00 9,3 0,4 6 4 14 8 W 1004,0 50 0,0
03.07.2020 06:00:00 8,5 1,4 7 4 12 7 WSW 1004,1 50 0,0
03.07.2020 05:00:00 6,3 1,7 7 4 14 8 SW 1004,4 49 0,0
03.07.2020 04:00:00 4,1 0,9 6 3 12 6 SSW 1004,3 50 0,0
03.07.2020 03:00:00 2,0 0,2 6 3 12 6 SSW 1004,6 50 0,0
03.07.2020 02:00:00 1,7 0,0 7 4 11 6 SW 1004,2 50 0,0
03.07.2020 01:00:00 2,6 0,2 8 4 13 7 SSW 1003,8 50 0,0
03.07.2020 00:00:00 3,3 0,1 6 4 10 5 SW 1003,4 50 0,0
02.07.2020 23:00:00 4,4 1,0 7 4 14 7 SW 1002,8 50 0,0
02.07.2020 22:00:00 7,0 0,8 8 4 28 15 WNW 1002,0 50 0,0
02.07.2020 21:00:00 10,3 0,3 12 6 27 15 WNW 1000,8 50 0,0
02.07.2020 20:00:00 10,9 -0,3 16 9 33 18 W 1000,0 50 0,0
02.07.2020 19:00:00 11,3 -0,1 18 10 32 17 W 999,5 50 0,0
02.07.2020 18:00:00 11,2 1,1 13 7 42 23 WNW 999,0 41 0,0
02.07.2020 17:00:00 12,3 1,0 26 14 41 22 W 998,3 46 0,0
02.07.2020 16:00:00 11,4 2,2 17 9 40 22 W 997,9 50 0,0
02.07.2020 15:00:00 12,0 1,7 22 12 43 23 W 996,9 48 0,0
02.07.2020 14:00:00 12,6 2,9 24 13 41 22 W 996,0 46 0,0
02.07.2020 13:00:00 10,1 2,9 20 11 36 20 W 995,9 41 0,0
02.07.2020 12:00:00 9,9 2,5 21 11 40 22 W 995,3 50 0,0
02.07.2020 11:00:00 9,1 2,3 21 12 36 19 W 994,6 50 0,0
02.07.2020 10:00:00 8,6 2,9 21 11 40 22 WNW 993,9 50 0,0
02.07.2020 09:00:00 7,4 2,7 18 10 33 18 WNW 993,3 50 0,0
02.07.2020 08:00:00 6,5 2,5 19 10 36 19 W 992,7 50 0,0
02.07.2020 07:00:00 5,7 2,8 18 10 31 17 W 992,2 50 0,0
02.07.2020 06:00:00 5,4 3,1 13 7 29 16 W 991,7 33 0,1
02.07.2020 05:00:00 5,3 2,4 12 7 25 13 W 991,2 50 0,0
02.07.2020 04:00:00 5,2 2,4 12 7 27 15 W 990,9 50 0,0
02.07.2020 03:00:00 5,4 2,9 14 8 27 14 W 990,4 50 0,0
02.07.2020 02:00:00 5,5 3,1 10 5 22 12 W 990,0 50 0,0
02.07.2020 01:00:00 5,7 3,2 13 7 26 14 W 989,7 50 0,0
02.07.2020 00:00:00 5,8 3,5 14 8 26 14 W 989,2 50 0,0
01.07.2020 23:00:00 6,0 4,1 10 6 20 11 W 988,9 50 0,0
01.07.2020 22:00:00 6,4 5,3 8 4 26 14 WSW 988,4 50 0,0

tt = temperature
td = dewpoint
ff = wind speed
fx = gusts
dd = wind direction
ppp = reduced air pressure
vv = visibility
rr = precipitation

Next stations